Weather History for Ann Arbor, MI

Change the Weather History Date:

Monday, May 27, 2013

  Actual Average Record
Temperature  
Mean Temperature 50 °F -  
Max Temperature 59 °F 66 °F 86 °F (2014)
Min Temperature 43 °F 44 °F 34 °F (1999)
Degree Days  
Heating Degree Days 15    
Moisture  
Dew Point 41 °F    
Average Humidity 73    
Maximum Humidity 88    
Minimum Humidity 55    
Precipitation  
Precipitation 0.70 in - - ()
Sea Level Pressure  
Sea Level Pressure 30.15 in    
Wind  
Wind Speed 4 mph (ESE)    
Max Wind Speed 12 mph    
Max Gust Speed 16 mph    
Visibility 7 miles    
Events Rain    
Averages and records for this station are not official NWS values.
T = Trace of Precipitation, MM = Missing Value Source: NWS Daily Summary

Daily Weather History Graph

Daily Weather History Graph

Search for Another Location

Airport:

Trip Planner

Search our weather history database for the weather conditions in past years. The results will help you decide how hot, cold, wet, or windy it might be!

Date:

Astronomy

May. 27, 2013 Rise Set
Actual Time 6:03 AM EDT 9:00 PM EDT
Civil Twilight 5:30 AM EDT 9:34 PM EDT
Nautical Twilight 4:48 AM EDT 10:16 PM EDT
Astronomical Twilight 3:58 AM EDT 11:06 PM EDT
Moon 11:38 PM EDT (5/27) 8:40 AM EDT (5/27)
Length of Visible Light 16h 03m
Length of Day
14h 57m
Waning Gibbous, 91% of the Moon is Illuminated
May 27
Waning Gibbous
May 31
Last Quarter
Jun 8
New
Jun 16
First Quarter
Jun 23
Full

Hourly Weather History & Observations

Time (EDT) Temp. Windchill Dew Point Humidity Pressure Visibility Wind Dir Wind Speed Gust Speed Precip Events Conditions
12:53 AM 48.9 °F - 37.0 °F 64% 30.27 in 10.0 mi Calm Calm - N/A   Clear
1:53 AM 44.1 °F - 37.0 °F 76% 30.26 in 10.0 mi Calm Calm - N/A   Clear
2:53 AM 43.0 °F - 37.0 °F 80% 30.25 in 10.0 mi Calm Calm - N/A   Clear
3:53 AM 45.0 °F - 36.0 °F 71% 30.24 in 10.0 mi Calm Calm - N/A   Clear
4:53 AM 45.0 °F 43.5 °F 36.0 °F 71% 30.23 in 10.0 mi NE 3.5 mph - N/A   Clear
5:53 AM 43.0 °F 40.3 °F 36.0 °F 76% 30.23 in 10.0 mi NE 4.6 mph - N/A   Clear
6:53 AM 43.0 °F - 36.0 °F 76% 30.24 in 10.0 mi Calm Calm - N/A   Clear
7:53 AM 48.9 °F - 39.0 °F 69% 30.24 in 10.0 mi East 3.5 mph - N/A   Clear
8:53 AM 54.0 °F - 37.9 °F 55% 30.24 in 10.0 mi ESE 6.9 mph - N/A   Clear
9:53 AM 55.0 °F - 42.1 °F 62% 30.23 in 10.0 mi ESE 4.6 mph - N/A   Overcast
10:53 AM 57.9 °F - 45.0 °F 62% 30.22 in 10.0 mi SSE 5.8 mph - N/A   Overcast
11:53 AM 57.0 °F - 43.0 °F 59% 30.20 in 10.0 mi South 5.8 mph - 0.00 in   Overcast
12:53 PM 55.0 °F - 43.0 °F 64% 30.19 in 10.0 mi SSE 9.2 mph - 0.00 in Rain Light Rain
1:53 PM 53.1 °F - 45.0 °F 74% 30.19 in 10.0 mi SE 9.2 mph - 0.00 in Rain Light Rain
2:53 PM 52.0 °F - 48.0 °F 86% 30.20 in 4.0 mi SE 6.9 mph - 0.04 in Rain Light Rain
3:04 PM 51.8 °F - 48.2 °F 88% 30.19 in 4.0 mi Variable 4.6 mph - 0.02 in Rain Rain
3:53 PM 51.1 °F - 46.9 °F 86% 30.16 in 5.0 mi ESE 11.5 mph - 0.08 in Rain Light Rain
4:00 PM 51.8 °F - 48.2 °F 88% 30.15 in 5.0 mi ESE 9.2 mph - 0.01 in Rain Light Rain
4:53 PM 51.1 °F - - N/A% 30.13 in 3.0 mi East 8.1 mph - 0.09 in Rain Rain
5:35 PM 51.8 °F - - N/A% 30.11 in 4.0 mi East 9.2 mph 16.1 mph 0.06 in Rain Light Rain
5:53 PM 50.0 °F - - N/A% 30.11 in 3.0 mi East 8.1 mph - 0.10 in Rain Rain
6:48 PM 50.0 °F - - N/A% 30.08 in 3.0 mi ESE 8.1 mph - 0.09 in Rain Light Rain
6:53 PM 50.0 °F - - N/A% 30.09 in 3.0 mi ESE 9.2 mph - 0.10 in Rain Light Rain
7:27 PM 50.0 °F - - N/A% 30.06 in 2.0 mi ESE 8.1 mph - 0.03 in Rain Light Rain
7:53 PM 50.0 °F - - N/A% 30.06 in 2.5 mi ESE 8.1 mph - 0.06 in Rain Light Rain
8:03 PM 50.0 °F - - N/A% 30.05 in 4.0 mi East 9.2 mph - 0.00 in Rain Light Rain
8:36 PM 50.0 °F - - N/A% 30.05 in 2.0 mi East 8.1 mph - 0.02 in Rain Light Rain
8:53 PM 51.1 °F - - N/A% 30.04 in 3.0 mi East 8.1 mph - 0.05 in Rain Light Rain
9:53 PM 51.1 °F - - N/A% 30.03 in 3.0 mi East 8.1 mph - 0.12 in Rain Rain
10:53 PM 52.0 °F - - N/A% 30.03 in 8.0 mi ENE 4.6 mph - 0.06 in Rain Light Rain
11:53 PM 52.0 °F - - N/A% 30.01 in 6.0 mi East 8.1 mph - 0.00 in   Haze